[[{"header":{"parameterUnit":"m.s-1","parameterCategory":1,"la1":30.2991,"la2":30.254,"lo1":-89.0895,"lo2":-89.0444,"dy":0.0017,"dx":0.0017,"nx":28,"ny":28,"refTime":"2023-08-19T21:00:00:Z","depth":0,"parameterNumber":2,"parameterNumberName":"U-component_of_WINDS"},"data":[0,0,0,0,0,0,0,0,0,0,0,0,0,0,0,0,0,0,0,0,0,0,0,0,0,0,0,0,0,0,0,0,0,0,0,0,0,0,0,0,0,0,0,0,0,0,0,0,0,0,0,0,0,0,0,0,0,0,-4.8084,-4.8085,0,-4.8187,-4.8188,-4.8189,-4.8131,-4.8128,-4.8125,-4.8123,-4.8228,-4.8233,-4.8238,0,0,0,0,0,0,0,0,0,0,0,0,0,-4.784,-4.7845,-4.8084,-4.8085,-4.8087,-4.8186,-4.8188,-4.8189,-4.8131,-4.8128,-4.8125,-4.8121,-4.8226,-4.8232,-4.8239,0,0,0,0,0,0,0,0,0,0,0,0,0,-4.7945,-4.7847,-4.8084,-4.807,-4.807,-4.8186,-4.8188,-4.819,-4.8132,-4.8128,-4.8124,-4.812,-4.8224,-4.8232,-4.824,-4.8376,0,0,-4.8265,-4.8268,0,0,0,0,0,0,0,0,-4.7939,-4.7954,-4.8071,-4.8071,-4.8071,-4.8142,-4.814,-4.8252,-4.8133,-4.8109,-4.8122,-4.8118,-4.8202,-4.8212,-4.8241,-4.8381,-4.8385,-4.8265,-4.827,-4.8274,-4.8276,0,0,0,0,0,0,0,-4.7932,-4.7949,-4.8125,-4.8072,-4.8073,-4.8059,-4.8069,-4.8161,-4.8178,-4.811,-4.8106,-4.8119,-4.8202,-4.8233,-4.8243,-4.8387,-4.8265,-4.8272,-4.8277,-4.8281,-4.8645,-4.8649,0,0,0,0,0,0,-4.7925,-4.7944,-4.8121,-4.8128,-4.7993,-4.8067,-4.8078,-4.8123,-4.8177,-4.8181,-4.8123,-4.8116,-4.8221,-4.8233,-4.8246,-4.8409,-4.8274,-4.8281,-4.8286,-4.864,-4.8646,-4.8651,0,0,0,0,0,0,-4.792,-4.7942,-4.8117,-4.8035,-4.8056,-4.8076,-4.8127,-4.8128,-4.8159,-4.8186,-4.8189,-4.8151,-4.8218,-4.8235,-4.8344,-4.8412,-4.8285,-4.8292,-4.8634,-4.8642,-4.8648,-4.8735,0,0,0,0,0,0,-4.7914,-4.794,-4.7992,-4.8036,-4.8061,-4.8213,-4.8131,-4.8133,-4.8173,-4.8165,-4.8214,-4.8218,-4.8216,-4.8332,-4.8352,-4.8421,-4.8299,-4.8628,-4.8638,-4.8646,-4.8726,-4.8745,-4.876,0,0,0,0,0,-4.7905,-4.8012,-4.7994,-4.8016,-4.8125,-4.8217,-4.8231,-4.8226,-4.8179,-4.823,-4.8249,-4.8216,-4.8402,-4.8344,-4.8366,-4.8438,-4.8624,-4.8635,-4.8645,-4.8719,-4.8741,-4.876,0,0,0,0,0,0,-4.7974,-4.8017,-4.7998,-4.8123,-4.8167,-4.8207,-4.8272,-4.825,-4.8308,-4.8299,-4.8291,-4.8303,-4.8417,-4.8439,-4.8373,-4.8573,-4.8506,-4.8521,-4.8554,-4.8575,-4.8592,-4.8583,-4.8306,0,0,0,0,0,-4.8003,-4.8074,-4.8109,-4.8215,-4.8238,-4.8252,-4.8292,-4.8285,-4.833,-4.8348,-4.8374,-4.842,-4.8488,-4.8533,-4.8598,-4.8731,-4.8741,-4.8791,-4.8808,-4.8822,-4.8834,-4.8907,-4.893,-4.8686,-4.8686,-4.8686,0,0,-4.8065,-4.8098,-4.8143,-4.823,-4.8263,-4.8337,-4.8268,-4.8348,-4.8403,-4.8361,-4.8465,-4.8487,-4.8537,-4.8659,-4.8714,-4.8681,-4.8905,-4.8835,-4.8846,-4.8851,-4.892,-4.8943,-4.8964,-4.8694,-4.8692,-4.8691,0,0,-4.8214,-4.8247,-4.8339,-4.8374,-4.8426,-4.8435,-4.8457,-4.8502,-4.8515,-4.862,-4.859,-4.8656,-4.8774,-4.8811,-4.8845,-4.9013,-4.8986,-4.9035,-4.9121,-4.9192,-4.9211,-4.9228,-4.9287,-4.9309,-4.9048,-4.9049,-4.9049,0,-4.8284,-4.8393,-4.8389,-4.8472,-4.8512,-4.8478,-4.8572,-4.8607,-4.8677,-4.8705,-4.8668,-4.8816,-4.8848,-4.8978,-4.9019,-4.9049,-4.9074,-4.9027,-4.9209,-4.9226,-4.9242,-4.9298,-4.932,-4.9054,-4.9053,-4.9053,-4.9052,0,-4.8477,-4.8554,-4.8622,-4.8691,-4.8739,-4.8827,-4.8836,-4.8885,-4.8876,-4.8889,-4.8998,-4.9035,-4.9107,-4.9138,-4.9129,-4.9268,-4.9246,-4.9209,-4.9141,-4.927,-4.9323,-4.9344,-4.9062,-4.906,-4.9058,-4.9057,0,0,-4.8668,-4.8736,-4.8761,-4.8792,-4.8849,-4.8908,-4.8996,-4.9067,-4.9109,-4.916,-4.9233,-4.9336,-4.9303,-4.9342,-4.9338,-4.94,-4.953,-4.9356,-4.9357,-4.9385,-4.9685,-4.9711,-4.9736,-4.9514,-4.9518,-4.9521,-4.9681,0,-4.882,-4.8972,-4.8972,-4.9113,-4.9184,-4.9155,-4.9232,-4.9276,-4.9292,-4.9355,-4.9373,-4.9445,-4.9396,-4.942,-4.9481,-4.9501,-4.959,-4.949,-4.9581,-4.9585,-4.9567,-4.9763,-4.979,-4.9938,-4.9701,-4.9705,-4.9707,0,-4.9016,-4.9074,-4.9222,-4.927,-4.9299,-4.9368,-4.9434,-4.9495,-4.9545,-4.9552,-4.9598,-4.9585,-4.9675,-4.9607,-4.9731,-4.9664,-4.9702,-4.9718,-4.9724,-4.973,-4.9652,-4.9773,-4.9986,-5.0007,-4.974,-4.9737,-4.9735,0,-4.9139,-4.9255,-4.9358,-4.9386,-4.9445,-4.9494,-4.952,-4.9566,-4.9609,-4.9667,-4.9695,-4.9764,-4.9801,-4.9854,-4.986,-4.981,-4.9986,-4.9918,-4.9994,-4.9994,-5.0029,-5.0027,-5.0249,-5.0058,-5.0058,-5.0058,-5.0057,0,-4.9307,-4.9398,-4.9414,-4.9478,-4.958,-4.958,-4.9682,-4.9704,-4.9746,-4.9814,-4.9794,-4.9859,-4.9864,-4.9931,-4.9937,-5.0039,-5.0056,-5.0065,-5.0064,-5.0065,-5.0064,-5.0087,-5.0076,-5.0064,-5.0062,-5.0061,-5.006,0,-4.946,-4.9474,-4.9585,-4.9632,-4.9647,-4.972,-4.976,-4.9822,-4.9837,-4.9924,-4.9944,-4.9968,-5.0046,-5.0058,-5.015,-5.0154,-5.0276,-5.0266,-5.0259,-5.0257,-5.0332,-5.0324,-5.0575,-5.0608,-5.0398,-5.04,-5.0401,0,-4.9565,-4.9634,-4.969,-4.9734,-4.9763,-4.9835,-4.9879,-4.9884,-4.9931,-4.9994,-5.0048,-5.0124,-5.0185,-5.0311,-5.0337,-5.0407,-5.0398,-5.0481,-5.0408,-5.0407,-5.0397,-5.0392,-5.0399,-5.0494,-5.0497,-5.0498,-5.05,0,-4.9749,-4.9753,-4.9818,-4.9886,-4.994,-4.9993,-5.0044,-5.0082,-5.0093,-5.0148,-5.0227,-5.0274,-5.0368,-5.0444,-5.0515,-5.0543,-5.0524,-5.0524,-5.0545,-5.0544,-5.0536,-5.054,-5.0295,-5.0517,-5.0515,-5.0514,-5.0513,-5.0512,-4.988,-4.9941,-4.999,-5.0063,-5.0102,-5.0151,-5.021,-5.0234,-5.0301,-5.0377,-5.0377,-5.0464,-5.0514,-5.0607,-5.064,-5.0709,-5.0682,-5.0713,-5.072,-5.0727,-5.0734,-5.0528,-5.0722,-5.0722,-5.0721,-5.0721,-5.072,0,-5.0062,-5.0092,-5.016,-5.0232,-5.029,-5.0269,-5.0325,-5.0375,-5.0451,-5.05,-5.0561,-5.0653,-5.0727,-5.076,-5.0834,-5.0883,-5.0876,-5.0901,-5.0897,-5.0903,-5.0754,-5.0728,-5.0906,-5.0906,-5.0906,-5.0906,-5.0906,-5.0906,-5.0163,-5.0265,-5.0276,-5.0398,-5.0428,-5.0513,-5.0547,-5.0592,-5.0631,-5.0735,-5.0796,-5.0818,-5.0861,-5.0937,-5.1005,-5.1013,-5.104,-5.107,-5.1074,-5.0933,-5.0914,-5.0896,-5.0871,-5.1076,-5.1076,-5.1217,-5.1218,-5.1219]},{"header":{"parameterUnit":"m.s-1","parameterCategory":1,"la1":30.2991,"la2":30.254,"lo1":-89.0895,"lo2":-89.0444,"dy":0.0017,"dx":0.0017,"nx":28,"ny":28,"refTime":"2023-08-19T21:00:00:Z","depth":0,"parameterNumber":3,"parameterNumberName":"V-component_of_WINDS"},"data":[0,0,0,0,0,0,0,0,0,0,0,0,0,0,0,0,0,0,0,0,0,0,0,0,0,0,0,0,0,0,0,0,0,0,0,0,0,0,0,0,0,0,0,0,0,0,0,0,0,0,0,0,0,0,0,0,0,0,2.6628,2.6629,0,2.6663,2.6664,2.6664,2.6723,2.6725,2.6726,2.6727,2.6757,2.6757,2.6757,0,0,0,0,0,0,0,0,0,0,0,0,0,2.6608,2.6608,2.6628,2.6629,2.6629,2.6663,2.6664,2.6664,2.6723,2.6725,2.6726,2.6727,2.6758,2.6757,2.6757,0,0,0,0,0,0,0,0,0,0,0,0,0,2.6627,2.6608,2.6628,2.6663,2.6666,2.6663,2.6664,2.6664,2.6723,2.6725,2.6726,2.6728,2.6758,2.6757,2.6757,2.6721,0,0,2.6756,2.6756,0,0,0,0,0,0,0,0,2.6626,2.6628,2.6657,2.666,2.6664,2.6691,2.6668,2.6683,2.6723,2.6701,2.6727,2.6729,2.6734,2.6735,2.6738,2.6723,2.6724,2.6756,2.6756,2.6756,2.6756,0,0,0,0,0,0,0,2.6625,2.6627,2.6642,2.6658,2.6662,2.6675,2.668,2.6671,2.6707,2.6703,2.6708,2.6711,2.6736,2.6738,2.6739,2.6725,2.6756,2.6756,2.6755,2.6755,2.6682,2.6681,0,0,0,0,0,0,2.6619,2.6625,2.6641,2.6643,2.6649,2.6674,2.6679,2.6681,2.6708,2.6714,2.671,2.6714,2.6738,2.674,2.6741,2.6701,2.6756,2.6755,2.6755,2.6684,2.6682,2.668,0,0,0,0,0,0,2.6618,2.662,2.664,2.6635,2.6639,2.6673,2.6674,2.668,2.6683,2.6713,2.6719,2.6706,2.6739,2.6741,2.6726,2.6703,2.6755,2.6755,2.6686,2.6684,2.6681,2.6621,0,0,0,0,0,0,2.6617,2.6619,2.6607,2.6635,2.6639,2.6625,2.6672,2.668,2.6683,2.6689,2.6711,2.6716,2.6741,2.6726,2.6726,2.6703,2.6755,2.6688,2.6685,2.6682,2.6625,2.6616,2.6609,0,0,0,0,0,2.6617,2.6587,2.6606,2.6607,2.6625,2.6624,2.6626,2.6657,2.6681,2.6668,2.6687,2.6715,2.6706,2.6724,2.6724,2.6701,2.669,2.6686,2.6682,2.6628,2.6618,2.6609,0,0,0,0,0,0,2.6553,2.6591,2.6613,2.6592,2.6604,2.6634,2.6619,2.6645,2.665,2.6654,2.6691,2.6695,2.6676,2.6687,2.6707,2.6668,2.6702,2.6698,2.6661,2.6652,2.6644,2.6641,2.6754,0,0,0,0,0,2.6537,2.6535,2.6568,2.6546,2.6552,2.6584,2.6585,2.6608,2.6622,2.6627,2.6645,2.6656,2.6656,2.6655,2.6656,2.6627,2.6633,2.6611,2.6603,2.6597,2.6592,2.6578,2.6568,2.6667,2.6667,2.6667,0,0,2.6503,2.6524,2.652,2.6534,2.6547,2.6542,2.6588,2.6581,2.6578,2.6625,2.6613,2.6627,2.6642,2.662,2.6611,2.6629,2.6566,2.6592,2.6586,2.6585,2.6573,2.6563,2.6555,2.6665,2.6665,2.6666,0,0,2.6439,2.6455,2.6438,2.6451,2.647,2.6492,2.6488,2.6515,2.6526,2.6515,2.655,2.6547,2.6545,2.6555,2.6559,2.65,2.6526,2.65,2.6457,2.6443,2.6435,2.6428,2.6406,2.6398,2.6495,2.6495,2.6495,0,2.6393,2.639,2.6426,2.6418,2.6423,2.6468,2.6451,2.6461,2.6479,2.648,2.6501,2.6501,2.6514,2.6495,2.6481,2.6483,2.6479,2.6496,2.6433,2.6427,2.6421,2.6401,2.6392,2.6492,2.6492,2.6492,2.6493,0,2.6333,2.633,2.6314,2.6333,2.6336,2.6323,2.6357,2.6356,2.6379,2.6398,2.6386,2.6404,2.641,2.6407,2.6429,2.6391,2.6402,2.6427,2.6461,2.6408,2.6389,2.6381,2.6487,2.6488,2.6489,2.649,0,0,2.6227,2.6268,2.6261,2.6271,2.6296,2.6294,2.6283,2.6291,2.6289,2.63,2.6291,2.629,2.6315,2.632,2.6343,2.633,2.6282,2.6357,2.6358,2.6342,2.6241,2.622,2.6211,2.63,2.6299,2.6298,2.6239,0,2.6167,2.6153,2.6186,2.6163,2.616,2.6204,2.6195,2.6209,2.6227,2.6227,2.6246,2.6245,2.6277,2.6281,2.627,2.629,2.6262,2.6295,2.629,2.629,2.6284,2.6201,2.6179,2.6123,2.6232,2.6231,2.623,0,2.6094,2.6104,2.6081,2.611,2.611,2.6101,2.6111,2.6111,2.6127,2.6142,2.6148,2.6176,2.6167,2.6202,2.6188,2.621,2.621,2.622,2.6218,2.6217,2.6255,2.6197,2.6106,2.6097,2.6219,2.622,2.6221,0,2.6019,2.6026,2.6014,2.602,2.6053,2.6046,2.6059,2.6077,2.608,2.6089,2.6091,2.6097,2.61,2.6104,2.6133,2.6156,2.6116,2.6153,2.6126,2.6125,2.6114,2.6113,2.602,2.6116,2.6116,2.6116,2.6117,0,2.5947,2.5931,2.598,2.5972,2.5955,2.5994,2.5976,2.5993,2.6009,2.6005,2.6043,2.6037,2.6076,2.6074,2.6097,2.6082,2.6083,2.6093,2.6099,2.6089,2.6087,2.6088,2.6092,2.6114,2.6115,2.6115,2.6116,0,2.5858,2.5891,2.588,2.5913,2.5921,2.5907,2.5934,2.5928,2.595,2.5943,2.5943,2.5977,2.5977,2.6007,2.6012,2.6028,2.6002,2.6016,2.5997,2.6001,2.5971,2.5973,2.5874,2.5862,2.5967,2.5966,2.5965,0,2.581,2.5799,2.5832,2.5832,2.5844,2.5844,2.5848,2.5885,2.5887,2.5907,2.5897,2.5901,2.5906,2.5904,2.5927,2.5932,2.5945,2.591,2.5945,2.5936,2.5943,2.5943,2.5941,2.5901,2.59,2.5899,2.5898,0,2.572,2.5737,2.5742,2.5753,2.5757,2.5767,2.5779,2.5777,2.5818,2.5818,2.582,2.5824,2.5831,2.5833,2.5843,2.5854,2.5882,2.5887,2.5881,2.587,2.5859,2.5863,2.5975,2.5889,2.589,2.589,2.5891,2.5891,2.5649,2.5642,2.5664,2.5668,2.5682,2.5693,2.5688,2.5711,2.5713,2.5723,2.5745,2.5743,2.5761,2.5776,2.5786,2.5784,2.5801,2.5792,2.579,2.5786,2.578,2.5861,2.5786,2.5786,2.5786,2.5787,2.5787,0,2.5561,2.5578,2.5582,2.5598,2.5602,2.5631,2.5646,2.5646,2.5645,2.566,2.5664,2.5666,2.5669,2.5694,2.57,2.5693,2.5706,2.5693,2.5693,2.5695,2.5765,2.577,2.5683,2.5683,2.5683,2.5683,2.5683,2.5683,2.5515,2.5504,2.5524,2.5519,2.5536,2.5536,2.5542,2.5552,2.5564,2.5565,2.5569,2.5586,2.5605,2.5612,2.5616,2.5623,2.5623,2.5605,2.5616,2.5681,2.5691,2.57,2.5704,2.5605,2.5605,2.5547,2.5546,2.5546]}]]